EN

Hourly Weather Ozere

Today, 25 February, Thursday

Time Temperature Precipitation Wind Pressure Humidity
00:00 -19°C° 0.1 mm 3 mps 760 mmHg 94%
01:00 -18°C° 0.2 mm 3 mps 759 mmHg 94%
02:00 -18°C° 0.2 mm 3 mps 758 mmHg 94%
03:00 -19°C° 0.2 mm 4 mps 757 mmHg 94%
04:00 -18°C° 0.6 mm 4 mps 756 mmHg 94%
05:00 -17°C° 0.6 mm 4 mps 755 mmHg 94%
06:00 -17°C° 0.6 mm 4 mps 754 mmHg 94%
07:00 -16°C° 0.7 mm 4 mps 753 mmHg 94%
08:00 -14°C° 0.7 mm 4 mps 752 mmHg 94%
09:00 -13°C° 0.7 mm 5 mps 751 mmHg 94%
10:00 -10°C° 0.6 mm 4 mps 750 mmHg 95%
11:00 -8°C° 0.6 mm 4 mps 749 mmHg 96%
12:00 -4°C° 0.6 mm 3 mps 748 mmHg 97%
13:00 -2°C° 0.2 mm 3 mps 748 mmHg 98%
14:00 -1°C° 0.2 mm 3 mps 748 mmHg 99%
15:00 +1°C° 0.2 mm 3 mps 747 mmHg 99%
16:00 +1°C° 0 mm 3 mps 747 mmHg 99%
17:00 +1°C° 0 mm 3 mps 747 mmHg 99%
18:00 0°C° 0 mm 4 mps 747 mmHg 99%
19:00 +1°C° 0 mm 3 mps 748 mmHg 98%
20:00 0°C° 0 mm 3 mps 748 mmHg 98%
21:00 0°C° 0 mm 3 mps 748 mmHg 97%
22:00 0°C° 0 mm 3 mps 748 mmHg 97%
23:00 0°C° 0 mm 3 mps 748 mmHg 97%

Tomorrow, 26 February, Friday

Time Temperature Precipitation Wind Pressure Humidity
00:00 -1°C° 0 mm 2 mps 748 mmHg 97%
01:00 +1°C° 0 mm 2 mps 748 mmHg 97%
02:00 +1°C° 0 mm 2 mps 748 mmHg 98%
03:00 +1°C° 0 mm 2 mps 748 mmHg 98%
04:00 +1°C° 0.1 mm 2 mps 747 mmHg 98%
05:00 0°C° 0.1 mm 3 mps 746 mmHg 98%
06:00 0°C° 0.1 mm 3 mps 746 mmHg 99%
07:00 +1°C° 0.2 mm 3 mps 746 mmHg 99%
08:00 +1°C° 0.2 mm 3 mps 745 mmHg 99%
09:00 0°C° 0.2 mm 4 mps 745 mmHg 99%
10:00 +1°C° 0.1 mm 3 mps 744 mmHg 99%
11:00 +1°C° 0.1 mm 3 mps 744 mmHg 99%
12:00 +1°C° 0.1 mm 3 mps 743 mmHg 99%
13:00 0°C° 0.2 mm 4 mps 742 mmHg 99%
14:00 +1°C° 0.2 mm 4 mps 742 mmHg 99%
15:00 +1°C° 0.2 mm 5 mps 741 mmHg 99%
16:00 +1°C° 0.4 mm 5 mps 741 mmHg 98%
17:00 +1°C° 0.4 mm 5 mps 740 mmHg 97%
18:00 +1°C° 0.4 mm 6 mps 740 mmHg 97%
19:00 0°C° 0 mm 5 mps 740 mmHg 95%
20:00 0°C° 0 mm 5 mps 740 mmHg 93%
21:00 0°C° 0 mm 5 mps 740 mmHg 91%
22:00 0°C° 0 mm 5 mps 740 mmHg 91%
23:00 -1°C° 0 mm 5 mps 739 mmHg 91%

Day after tomorrow, 27 February, Saturday

Time Temperature Precipitation Wind Pressure Humidity
00:00 -1°C° 0 mm 5 mps 739 mmHg 91%
01:00 -1°C° 0 mm 5 mps 739 mmHg 90%
02:00 -1°C° 0 mm 5 mps 739 mmHg 89%
03:00 -1°C° 0 mm 5 mps 739 mmHg 89%
04:00 -1°C° 0 mm 5 mps 739 mmHg 89%
05:00 -2°C° 0 mm 5 mps 738 mmHg 89%
06:00 -2°C° 0 mm 5 mps 738 mmHg 89%
07:00 -2°C° 0 mm 5 mps 738 mmHg 90%
08:00 -2°C° 0 mm 5 mps 738 mmHg 90%
09:00 -1°C° 0 mm 5 mps 738 mmHg 90%
10:00 -1°C° 0 mm 5 mps 738 mmHg 91%
11:00 -1°C° 0 mm 5 mps 738 mmHg 91%
12:00 -1°C° 0 mm 5 mps 738 mmHg 92%
13:00 -2°C° 0.3 mm 5 mps 739 mmHg 92%
14:00 -5°C° 0.3 mm 5 mps 739 mmHg 92%
15:00 -6°C° 0.3 mm 5 mps 740 mmHg 92%
16:00 -7°C° 0.1 mm 5 mps 740 mmHg 91%
17:00 -8°C° 0.1 mm 4 mps 741 mmHg 90%
18:00 -9°C° 0.1 mm 4 mps 741 mmHg 89%
19:00 -8°C° 0 mm 3 mps 742 mmHg 90%
20:00 -9°C° 0 mm 3 mps 743 mmHg 91%
21:00 -10°C° 0 mm 3 mps 744 mmHg 92%
22:00 -10°C° 0 mm 3 mps 744 mmHg 92%
23:00 -10°C° 0 mm 3 mps 744 mmHg 92%

28 February, Sunday

Time Temperature Precipitation Wind Pressure Humidity
00:00 -9°C° 0 mm 2 mps 745 mmHg 92%
01:00 -10°C° 0 mm 2 mps 745 mmHg 92%
02:00 -10°C° 0 mm 2 mps 746 mmHg 92%
03:00 -10°C° 0 mm 2 mps 746 mmHg 93%
04:00 -12°C° 0 mm 2 mps 747 mmHg 93%
05:00 -12°C° 0 mm 2 mps 747 mmHg 93%
06:00 -13°C° 0 mm 2 mps 748 mmHg 94%
07:00 -13°C° 0 mm 2 mps 748 mmHg 93%
08:00 -14°C° 0 mm 3 mps 748 mmHg 92%
09:00 -13°C° 0 mm 3 mps 749 mmHg 91%
10:00 -12°C° 0 mm 3 mps 749 mmHg 89%
11:00 -10°C° 0 mm 3 mps 749 mmHg 88%
12:00 -9°C° 0 mm 3 mps 750 mmHg 87%
13:00 -8°C° 0 mm 3 mps 750 mmHg 87%
14:00 -7°C° 0 mm 3 mps 750 mmHg 86%
15:00 -8°C° 0 mm 4 mps 750 mmHg 86%
16:00 -7°C° 0 mm 3 mps 751 mmHg 88%
17:00 -7°C° 0 mm 3 mps 751 mmHg 91%
18:00 -7°C° 0 mm 2 mps 751 mmHg 93%
19:00 -7°C° 0 mm 2 mps 752 mmHg 94%
20:00 -8°C° 0 mm 2 mps 753 mmHg 94%
21:00 -9°C° 0 mm 2 mps 753 mmHg 95%
22:00 -9°C° 0 mm 2 mps 754 mmHg 95%
23:00 -10°C° 0 mm 2 mps 754 mmHg 95%

1 March, Monday

Time Temperature Precipitation Wind Pressure Humidity
00:00 -10°C° 0 mm 2 mps 755 mmHg 96%
01:00 -9°C° 0 mm 1 mps 755 mmHg 96%
02:00 -9°C° 0 mm 1 mps 755 mmHg 96%
03:00 -9°C° 0 mm 1 mps 756 mmHg 96%
04:00 -9°C° 0 mm 1 mps 756 mmHg 96%
05:00 -9°C° 0 mm 1 mps 756 mmHg 96%
06:00 -10°C° 0 mm 1 mps 756 mmHg 97%
07:00 -10°C° 0 mm 2 mps 757 mmHg 96%
08:00 -9°C° 0 mm 2 mps 757 mmHg 95%
09:00 -9°C° 0 mm 2 mps 757 mmHg 94%
10:00 -7°C° 0 mm 2 mps 758 mmHg 92%
11:00 -6°C° 0 mm 2 mps 758 mmHg 89%
12:00 -4°C° 0 mm 2 mps 758 mmHg 87%
13:00 -4°C° 0 mm 2 mps 758 mmHg 86%
14:00 -3°C° 0 mm 2 mps 757 mmHg 85%
15:00 -4°C° 0 mm 3 mps 757 mmHg 84%
16:00 -4°C° 0 mm 3 mps 757 mmHg 86%
17:00 -4°C° 0 mm 2 mps 757 mmHg 89%
18:00 -5°C° 0 mm 2 mps 756 mmHg 91%
19:00 -5°C° 0 mm 3 mps 756 mmHg 92%
20:00 -5°C° 0 mm 3 mps 755 mmHg 93%
21:00 -5°C° 0 mm 3 mps 755 mmHg 94%
22:00 -4°C° 0 mm 4 mps 754 mmHg 94%
23:00 -4°C° 0 mm 4 mps 753 mmHg 93%

2 March, Tuesday

Time Temperature Precipitation Wind Pressure Humidity
00:00 -3°C° 0 mm 4 mps 753 mmHg 93%
01:00 -2°C° 0.4 mm 4 mps 752 mmHg 94%
02:00 -2°C° 0.4 mm 5 mps 751 mmHg 95%
03:00 -2°C° 0.4 mm 5 mps 750 mmHg 96%
04:00 -2°C° 0.1 mm 5 mps 750 mmHg 96%
05:00 -2°C° 0.1 mm 5 mps 749 mmHg 96%
06:00 -1°C° 0.1 mm 5 mps 748 mmHg 96%
07:00 -1°C° 0.1 mm 5 mps 748 mmHg 96%
08:00 -1°C° 0.1 mm 5 mps 748 mmHg 97%
09:00 -1°C° 0.1 mm 5 mps 748 mmHg 97%
10:00 -1°C° 0 mm 5 mps 748 mmHg 96%
11:00 -1°C° 0 mm 5 mps 748 mmHg 95%
12:00 -1°C° 0 mm 6 mps 748 mmHg 93%
13:00 0°C° 0.1 mm 5 mps 748 mmHg 92%
14:00 0°C° 0.1 mm 5 mps 748 mmHg 91%
15:00 0°C° 0.1 mm 5 mps 749 mmHg 90%
16:00 -1°C° 0 mm 5 mps 749 mmHg 88%
17:00 -1°C° 0 mm 5 mps 749 mmHg 87%
18:00 -1°C° 0 mm 5 mps 750 mmHg 85%
19:00 -1°C° 0 mm 5 mps 750 mmHg 85%
20:00 -2°C° 0 mm 4 mps 750 mmHg 85%
21:00 -2°C° 0 mm 4 mps 751 mmHg 85%
22:00 -2°C° 0 mm 4 mps 751 mmHg 86%
23:00 -2°C° 0 mm 4 mps 751 mmHg 87%
Show more

We Need Your Consent

Meteoprog and our Service Providers may store and access personal data such as cookies, device identifiers or other similar technologies on your device and process such data to personalise content and ads, as well as provide social media features and to analyse the traffic.

  • Store and/or access information on your device

    Cookies, device identifiers or other information can be stored or accessed on your device for the purposes indicated above.

  • Personalised ads and content, ad and content measurement, audience insights, and products development

    Ads and content can be personalised based on a profile. More data can be added to better personalise ads and content. Ad and content performance can be measured. Insights about the audience who saw the ads and content can be derived. Such data can be used to develop or improve user’s experience, systems and software.

By clicking ‘I Agree’ you will allow the use of indicated cookies, device identifiers, web beacons or other similar technologies. Your settings can be changed in the browser on your device.

For certain purposes, legitimate interests may be relied on, rather than consent. You can read more about this in our Privacy and Cookie Policy.